Regional Weather Roundup
Issued by NWS

Home | Current Version | Previous Version | Text Only | Print | Product List | Glossary Off
Versions: 1 2 3 4 5 6 7 8 9 10 11 12 13 14 15 16 17 18 19 20 21 22 23 24 25 26 27 28 29 30 31 32 33 34 35 36 37 38 39 40 41 42 43 44 45 46 47 48 49 50

000
ASUS43 KLOT 280100
RWRIL

ILLINOIS REGIONAL WEATHER ROUNDUP
NATIONAL WEATHER SERVICE CHICAGO/ROMEOVILLE IL
700 PM CST SAT DEC 27 2014

NOTE: "FAIR" INDICATES FEW OR NO CLOUDS BELOW 12,000 FEET WITH NO
SIGNIFICANT WEATHER AND/OR OBSTRUCTIONS TO VISIBILITY.

* THESE STATIONS ARE NOT UNDER NWS QUALITY CONTROL. THEY ALSO MAY NOT
  REPORT WEATHER SUCH AS PRECIPITATION OR FOG.

ILZ001-002-007-009-015-016-024-280200-
NORTHWEST ILLINOIS

CITY           SKY/WX    TMP DP  RH WIND       PRES   REMARKS
MOLINE         CLOUDY    30  22  72 NW15      30.16S WCI  19
STERLING*      MOCLDY    32  25  74 NW14      30.13S WCI  22
$$

ILZ003-004-008-010-011-017-018-280200-
NORTH CENTRAL ILLINOIS

CITY           SKY/WX    TMP DP  RH WIND       PRES   REMARKS
ROCKFORD       MOCLDY    32  25  75 NW13      30.12S WCI  22
$$

ILZ005-006-012>014-019>023-280200-
NORTHEAST ILLINOIS

CITY           SKY/WX    TMP DP  RH WIND       PRES   REMARKS
CHICAGO-OHARE  CLOUDY    34  26  72 NW17G23   30.08R WCI  23
CHICAGO-MIDWAY CLOUDY    36  26  67 W15       30.09R WCI  27
AURORA         CLOUDY    33  27  78 W14       30.10R WCI  23
WAUKEGAN       CLOUDY    34  25  69 W7G21     30.05R WCI  28
DUPAGE AIRPORT CLOUDY    34  26  72 W10       30.08R WCI  26
WHEELING       CLOUDY    34  26  72 W14G20    30.09R WCI  25
NORTHERLY ISL    N/A     35  26  70 W16         N/A  WCI  25
$$

LMZ740>746-280200-
SOUTHERN LAKE MICHIGAN

STATION/POSITION SKY/WX   TEMP    WIND        PRES    VSBY  WAVE
                          AIR SEA DIR/SP/G                  HT/PER
                          (F)     (DEG/KT/KT) (MB)    (MI)  (FT/S)
WAUKEGAN HARBOR            34     300/ 13/ 22   N/A
HARRISON CRIB              34     280/ 21/ 26   N/A
BURNHAM HARBOR             35     280/ 10/ 17   N/A
CALUMET HARBOR             35     260/ 12/ 17 1017.5R
MICHIGAN CITY              36     240/ 22/ 25   N/A
$$

ILZ025>027-034>036-040-047-049-050-058-095>099-280200-
WEST-CENTRAL ILLINOIS

CITY           SKY/WX    TMP DP  RH WIND       PRES   REMARKS
QUINCY         CLOUDY    33  25  72 NW9       30.20R WCI  25
MACOMB*        CLOUDY    32  27  80 NW16G22   30.19F WCI  21
$$

ILZ028>032-037-038-041>044-048-051>054-059>061-280200-
CENTRAL ILLINOIS

CITY           SKY/WX    TMP DP  RH WIND       PRES   REMARKS
DECATUR        CLOUDY    35  32  88 NW9       30.15F WCI  28
PEORIA         CLOUDY    34  25  69 NW12      30.16S WCI  25
LINCOLN*       CLOUDY    35  30  83 NW7       30.18R WCI  29
SPRINGFIELD    CLOUDY    35  30  82 NW9       30.19R WCI  28
TAYLORVILLE    NOT AVBL
$$

ILZ033-039-045-046-055>057-062-063-280200-
EAST-CENTRAL ILLINOIS

CITY           SKY/WX    TMP DP  RH WIND       PRES   REMARKS
CHAMPAIGN      LGT SNOW  34  33  96 NW10      30.13S FOG     WCI  26
MATTOON        RAIN      35  34  96 NW10      30.13S FOG     WCI  27
$$

ILZ079-100>102-280200-
SOUTHWEST ILLINOIS

CITY           SKY/WX    TMP DP  RH WIND       PRES   REMARKS
BELLEVILLE     LGT RAIN  36  35  99 NW5       30.19F WCI  32
CAHOKIA*       LGT RAIN  36  35  96 W5        30.20R WCI  32
$$

ILZ064>066-069>071-074>076-080>082-084>086-088>090-092>094-280200-
SOUTH-CENTRAL ILLINOIS

CITY           SKY/WX    TMP DP  RH WIND       PRES   REMARKS
CARBONDALE     RAIN      39  38  96 NW8       30.20R FOG     WCI  33
MT. VERNON     CLOUDY    37  34  87 CALM      30.19R
$$

ILZ067-068-072-073-078-083-087-091-280200-
SOUTHEAST ILLINOIS

CITY           SKY/WX    TMP DP  RH WIND       PRES   REMARKS
LAWRENCEVILLE  LGT RAIN  41  40  96 NW15      30.15R FOG
ROBINSON*      LGT RAIN  40  38  95 NW8       30.16R
$$

ABBREVIATIONS USED IN REMARKS
   TC - TEMPERATURE IN CELSIUS
  WCI - WIND CHILL INDEX
   HX - HEAT INDEX
  VSB - VISIBILITY
$$



USA.gov is the U.S. government's official web portal to all federal, state and local government web resources and services.